Weather History for Madison, MN

Change the Weather History Date:

Saturday, April 12, 2014

  Actual Average (KAQP) Record (KAQP)
Temperature  
Mean Temperature 55 °F -  
Max Temperature 64 °F 51 °F 71 °F (2003)
Min Temperature 46 °F 30 °F 17 °F (2004)
Degree Days  
Heating Degree Days 10    
Growing Degree Days 5 (Base 50)    
Moisture  
Dew Point 43 °F    
Average Humidity 67    
Maximum Humidity 93    
Minimum Humidity 52    
Precipitation  
Precipitation 0.01 in - - ()
Sea Level Pressure  
Sea Level Pressure 29.72 in    
Wind  
Wind Speed 10 mph (East)    
Max Wind Speed 23 mph    
Max Gust Speed 26 mph    
Visibility 10 miles    
Events Rain    
Averages and records for this station are not official NWS values.
T = Trace of Precipitation, MM = Missing Value Source: NWS Daily Summary

Daily Weather History Graph

Daily Weather History Graph

Search for Another Location

Airport:

Trip Planner

Search our weather history database for the weather conditions in past years. The results will help you decide how hot, cold, wet, or windy it might be!

Date:

Astronomy

Apr. 12, 2014 Rise Set
Actual Time 6:45 AM CDT 8:06 PM CDT
Civil Twilight 6:14 AM CDT 8:36 PM CDT
Nautical Twilight 5:38 AM CDT 9:13 PM CDT
Astronomical Twilight 4:59 AM CDT 9:52 PM CDT
Moon 5:40 PM CDT (4/12) 5:19 AM CDT (4/12)
Length of Visible Light 14h 22m
Length of Day
13h 21m
Waxing Gibbous, 93% of the Moon is Illuminated
Apr 12
Waxing Gibbous
Apr 15
Full
Apr 22
Last Quarter
Apr 29
New
May 6
First Quarter

Hourly Weather History & Observations

Time (CDT) Temp. Windchill Dew Point Humidity Pressure Visibility Wind Dir Wind Speed Gust Speed Precip Events Conditions
12:14 AM 53.6 °F - 39.2 °F 58% 29.82 in 10.0 mi ESE 8.1 mph - N/A   Clear
12:33 AM 53.6 °F - 39.2 °F 58% 29.82 in 10.0 mi ESE 8.1 mph - N/A   Scattered Clouds
12:54 AM 51.8 °F - 39.2 °F 62% 29.81 in 10.0 mi ESE 9.2 mph - N/A   Mostly Cloudy
1:14 AM 51.8 °F - 39.2 °F 62% 29.80 in 10.0 mi East 8.1 mph - N/A   Overcast
1:34 AM 51.8 °F - 39.2 °F 62% 29.81 in 10.0 mi East 8.1 mph - N/A   Mostly Cloudy
1:54 AM 53.6 °F - 39.2 °F 58% 29.80 in 10.0 mi ENE 10.4 mph - N/A   Scattered Clouds
2:13 AM 53.6 °F - 39.2 °F 58% 29.81 in 10.0 mi East 8.1 mph - N/A Rain Light Rain
2:34 AM 53.6 °F - 39.2 °F 58% 29.81 in 10.0 mi ENE 9.2 mph - N/A   Overcast
2:54 AM 51.8 °F - 39.2 °F 62% 29.80 in 10.0 mi NE 10.4 mph - N/A   Light Drizzle
3:14 AM 50.0 °F - 41.0 °F 71% 29.79 in 10.0 mi NE 15.0 mph - N/A   Light Drizzle
3:34 AM 48.2 °F - 42.8 °F 82% 29.77 in 10.0 mi ENE 23.0 mph - N/A Rain Light Rain
3:54 AM 50.0 °F - 41.0 °F 71% 29.76 in 10.0 mi ENE 19.6 mph 25.3 mph N/A   Overcast
4:14 AM 48.2 °F - 41.0 °F 76% 29.74 in 10.0 mi ENE 19.6 mph 24.2 mph 0.01 in Rain Light Rain
4:34 AM 48.2 °F - 41.0 °F 76% 29.75 in 10.0 mi ENE 13.8 mph - 0.01 in   Scattered Clouds
4:54 AM 48.2 °F - 41.0 °F 76% 29.72 in 10.0 mi East 16.1 mph - 0.01 in   Clear
5:14 AM 48.2 °F - 39.2 °F 71% 29.70 in 10.0 mi East 16.1 mph - N/A   Clear
5:34 AM 48.2 °F - 39.2 °F 71% 29.71 in 10.0 mi ENE 16.1 mph - N/A   Clear
5:53 AM 48.2 °F - 39.2 °F 71% 29.71 in 10.0 mi ENE 17.3 mph - N/A   Clear
6:14 AM 48.2 °F - 39.2 °F 71% 29.69 in 10.0 mi East 19.6 mph - N/A   Clear
6:33 AM 48.2 °F - 39.2 °F 71% 29.68 in 10.0 mi East 17.3 mph 26.5 mph N/A   Clear
6:54 AM 48.2 °F - 39.2 °F 71% 29.69 in 10.0 mi East 18.4 mph - N/A   Clear
7:14 AM 48.2 °F - 39.2 °F 71% 29.69 in 10.0 mi East 16.1 mph 24.2 mph N/A   Clear
7:33 AM 48.2 °F - 39.2 °F 71% 29.69 in 10.0 mi East 17.3 mph 26.5 mph N/A   Clear
7:54 AM 48.2 °F - 39.2 °F 71% 29.69 in 10.0 mi East 20.7 mph 26.5 mph N/A   Clear
8:14 AM 48.2 °F - 41.0 °F 76% 29.70 in 10.0 mi East 18.4 mph 23.0 mph N/A   Clear
8:33 AM 50.0 °F - 41.0 °F 71% 29.70 in 10.0 mi East 15.0 mph - N/A   Clear
8:54 AM 50.0 °F - 41.0 °F 71% 29.70 in 10.0 mi East 15.0 mph - N/A   Clear
9:14 AM 51.8 °F - 42.8 °F 71% 29.69 in 10.0 mi ESE 13.8 mph - N/A   Clear
9:33 AM 51.8 °F - 42.8 °F 71% 29.70 in 10.0 mi ESE 15.0 mph 19.6 mph N/A   Clear
9:54 AM 53.6 °F - 42.8 °F 67% 29.70 in 10.0 mi East 10.4 mph - N/A   Clear
10:14 AM 53.6 °F - 42.8 °F 67% 29.70 in 10.0 mi ESE 9.2 mph - N/A   Clear
10:33 AM 53.6 °F - 42.8 °F 67% 29.70 in 10.0 mi East 12.7 mph - N/A   Clear
10:54 AM 55.4 °F - 42.8 °F 63% 29.70 in 10.0 mi East 8.1 mph - N/A   Clear
11:14 AM 55.4 °F - 42.8 °F 63% 29.70 in 10.0 mi NE 8.1 mph - N/A   Clear
11:33 AM 55.4 °F - 44.6 °F 67% 29.71 in 10.0 mi Calm Calm - N/A   Clear
11:54 AM 57.2 °F - 44.6 °F 63% 29.70 in 10.0 mi ENE 6.9 mph - N/A   Clear
12:14 PM 59.0 °F - 44.6 °F 59% 29.69 in 10.0 mi East 11.5 mph - N/A   Clear
12:33 PM 57.2 °F - 44.6 °F 63% 29.70 in 10.0 mi East 6.9 mph - N/A   Clear
12:54 PM 59.0 °F - 44.6 °F 59% 29.70 in 10.0 mi ESE 4.6 mph - N/A   Clear
1:14 PM 60.8 °F - 44.6 °F 55% 29.70 in 10.0 mi East 4.6 mph - N/A   Clear
1:33 PM 60.8 °F - 46.4 °F 59% 29.69 in 10.0 mi ENE 6.9 mph - N/A   Clear
1:54 PM 60.8 °F - 46.4 °F 59% 29.69 in 10.0 mi East 6.9 mph - N/A   Clear
2:13 PM 62.6 °F - 46.4 °F 55% 29.68 in 10.0 mi SE 8.1 mph - N/A   Clear
2:34 PM 62.6 °F - 46.4 °F 55% 29.68 in 10.0 mi East 5.8 mph - N/A   Clear
2:54 PM 62.6 °F - 46.4 °F 55% 29.68 in 10.0 mi East 8.1 mph - N/A   Clear
3:13 PM 62.6 °F - 46.4 °F 55% 29.69 in 10.0 mi ESE 5.8 mph - N/A   Clear
3:34 PM 62.6 °F - 46.4 °F 55% 29.69 in 10.0 mi ENE 4.6 mph - N/A   Clear
3:54 PM 64.4 °F - 46.4 °F 52% 29.68 in 10.0 mi ENE 4.6 mph - N/A   Clear
4:14 PM 64.4 °F - 46.4 °F 52% 29.69 in 10.0 mi NE 5.8 mph - N/A   Clear
4:34 PM 64.4 °F - 46.4 °F 52% 29.68 in 10.0 mi ENE 4.6 mph - N/A   Clear
4:53 PM 64.4 °F - 46.4 °F 52% 29.68 in 10.0 mi NE 4.6 mph - N/A   Clear
5:14 PM 64.4 °F - 46.4 °F 52% 29.68 in 10.0 mi NE 5.8 mph - N/A   Clear
5:34 PM 64.4 °F - 46.4 °F 52% 29.68 in 10.0 mi NNE 4.6 mph - N/A   Clear
5:53 PM 64.4 °F - 46.4 °F 52% 29.69 in 10.0 mi East 4.6 mph - N/A   Clear
6:14 PM 64.4 °F - 46.4 °F 52% 29.69 in 10.0 mi ENE 4.6 mph - N/A   Clear
6:34 PM 62.6 °F - 46.4 °F 55% 29.70 in 10.0 mi East 6.9 mph - N/A   Clear
6:53 PM 62.6 °F - 48.2 °F 59% 29.70 in 10.0 mi East 5.8 mph - N/A   Clear
7:14 PM 60.8 °F - 48.2 °F 63% 29.70 in 10.0 mi East 4.6 mph - N/A   Clear
7:33 PM 60.8 °F - 48.2 °F 63% 29.71 in 10.0 mi East 5.8 mph - N/A   Clear
7:54 PM 57.2 °F - 48.2 °F 72% 29.71 in 10.0 mi East 6.9 mph - N/A   Clear
8:14 PM 55.4 °F - 48.2 °F 77% 29.71 in 10.0 mi East 6.9 mph - N/A   Clear
8:33 PM 53.6 °F - 46.4 °F 77% 29.72 in 10.0 mi East 5.8 mph - N/A   Clear
8:54 PM 53.6 °F - 46.4 °F 77% 29.72 in 10.0 mi East 4.6 mph - N/A   Clear
9:14 PM 53.6 °F - 46.4 °F 77% 29.73 in 10.0 mi East 4.6 mph - N/A   Clear
9:33 PM 51.8 °F - 46.4 °F 82% 29.73 in 10.0 mi East 4.6 mph - N/A   Clear
9:54 PM 48.2 °F - 44.6 °F 87% 29.74 in 10.0 mi NE 6.9 mph - N/A   Clear
10:14 PM 50.0 °F - 44.6 °F 82% 29.73 in 10.0 mi NE 6.9 mph - N/A   Clear
10:33 PM 48.2 °F - 44.6 °F 87% 29.72 in 10.0 mi NE 8.1 mph - N/A   Clear
10:54 PM 48.2 °F - 44.6 °F 87% 29.72 in 10.0 mi NE 8.1 mph - N/A   Clear
11:14 PM 48.2 °F - 44.6 °F 87% 29.73 in 10.0 mi NE 4.6 mph - N/A   Clear
11:33 PM 46.4 °F 44.3 °F 42.8 °F 87% 29.73 in 10.0 mi NNE 4.6 mph - N/A   Clear
11:54 PM 46.4 °F 40.7 °F 44.6 °F 93% 29.75 in 7.0 mi WNW 12.7 mph - N/A   Clear